Regional Weather Roundup
Issued by NWS Cleveland, OH

Home | Current Version | Previous Version | Graphics & Text | Print | Product List | Glossary On
Versions: 1 2 3 4 5 6 7 8 9 10 11 12 13 14 15 16 17 18 19 20 21 22 23 24 25 26 27 28 29 30 31 32 33 34 35 36 37 38 39 40 41 42 43 44 45 46 47 48 49 50
000
ASUS41 KCLE 311900
RWRCLE
OHIO REGIONAL WEATHER ROUNDUP
NATIONAL WEATHER SERVICE WILMINGTON, OH
300 PM EDT FRI OCT 31 2014

NOTE: "FAIR" INDICATES FEW OR NO CLOUDS BELOW 12,000 FEET WITH NO
SIGNIFICANT WEATHER AND/OR OBSTRUCTIONS TO VISIBILITY.

OHZ001>008-015>018-024>027-034-035-043-044-312000-
   NORTHWEST OHIO

CITY           SKY/WX    TMP DP  RH WIND       PRES   REMARKS
DEFIANCE       CLOUDY    44  38  79 N8        29.90F
FINDLAY        LGT RAIN  43  39  86 NW12      29.87S
TOLEDO EXPRESS LGT RAIN  43  40  89 NW12      29.88S FOG
TOLEDO METCALF LGT RAIN  43  39  86 NW13G20   29.88S
LIMA           CLOUDY    42  37  82 NW15      29.88S
$$

OHZ009>014-019>023-028>033-038-089-312000-
   NORTHEAST OHIO

CITY           SKY/WX    TMP DP  RH WIND       PRES   REMARKS
CLE-HOPKINS    LGT RAIN  46  38  73 SW3       29.88F
CLE-LAKEFRONT    N/A    N/A N/A N/A MISG      29.85F
CUY CO. ARPT   CLOUDY    50  37  62 SW7       29.86F
LORAIN-ELYRIA  LGT RAIN  45  39  79 W6        29.86F
ASHTABULA      CLOUDY    47  37  68 CALM      29.86F
AKRON-CANTON   CLOUDY    47  37  68 S5        29.84F
WOOSTER        NOT AVBL
MANSFIELD      LGT RAIN  43  38  82 SW6       29.84F
YOUNGSTOWN     CLOUDY    46  36  68 SW6       29.85F
$$

OHZ042-051>053-060>062-070>072-077>081-312000-
  SOUTHWEST OHIO

CITY           SKY/WX    TMP DP  RH WIND       PRES   REMARKS
CINC-COVINGTON LGT RAIN  41  38  89 NW21      29.92S FOG
CINC-LUNKEN    LGT RAIN  42  38  85 N9G20     29.94R FOG
HAMILTON       LGT RAIN  41  38  89 NW16      29.94S
DAYTON         LGT RAIN  41  38  89 NW16      29.90F
WRIGHT-PAT AFB NOT AVBL
DAYTON GENERAL LGT RAIN  40  37  89 NW15G23   29.90S
WILMINGTON     LGT RAIN  40  37  89 NW14G25   29.88R
$$

OHZ036-037-039>041-045>050-054>059-063>069-073>076-082>088-312000-
  CENTRAL AND SOUTHEAST OHIO

CITY           SKY/WX    TMP DP  RH WIND       PRES   REMARKS
COLUMBUS       LGT RAIN  45  39  79 NW3       29.85F
OSU AIRPORT    LGT RAIN  45  40  82 NW7       29.85F
BOLTON FIELD   NOT AVBL
RICKENBACK AFB NOT AVBL
NEWARK         CLOUDY    47  39  74 S7        29.84F
MARION         LGT RAIN  43  38  82 NW7       29.85F
LANCASTER      CLOUDY    47  40  76 S6        29.85F
ZANESVILLE     CLOUDY    46  38  73 S5        29.85F
NEW PHILLY     CLOUDY    48  38  68 VRB6      29.86F
$$



USA.gov is the U.S. government's official web portal to all federal, state and local government web resources and services.